AirNav   BOSE A20 Aviation Headset
 
 974 users online  

L90 Ocotillo Airport
Ocotillo Wells, California, USA

GOING TO OCOTILLO WELLS?


FAA INFORMATION EFFECTIVE 26 APRIL 2018

Location

FAA Identifier: L90
Lat/Long: 33-08-52.0000N / 116-07-53.7000W
33-08.866667N / 116-07.895000W
33.1477778 / -116.1315833
(estimated)
Elevation: 160 ft. / 49 m (estimated)
Variation: 13E (1985)
Time zone: UTC -7 (UTC -8 during Standard Time)
Zip code: 92004

Airport Operations

Airport use: Open to the public
Activation date: 06/1948
Control tower: no
ARTCC: LOS ANGELES CENTER
FSS: SAN DIEGO FLIGHT SERVICE STATION
NOTAMs facility: SAN (NOTAM-D service available)
Attendance: UNATNDD
Pattern altitude: 960 ft. MSL
Wind indicator: yes
Segmented circle: yes

Airport Communications

CTAF: 122.9
WX AWOS-3 at L08 (12 nm NW): 126.575 (760-767-3308)

Nearby radio navigation aids

VOR radial/distance  VOR name  Freq  Var
JLIr074/22.8JULIAN VORTAC114.0015E
TRMr164/28.9THERMAL VORTAC116.2013E
IPLr293/39.5IMPERIAL VORTAC115.9014E

Airport Services

Parking: tiedowns
Airframe service: NONE
Powerplant service: NONE
Bottled oxygen: NONE
Bulk oxygen: NONE

Runway Information

Runway 13/31

Dimensions: 4210 x 150 ft. / 1283 x 46 m
Surface: dirt, in good condition
RUNWAY 13  RUNWAY 31
Latitude: 33-09.220833N33-08.647833N
Longitude: 116-08.170167W116-07.704000W
Traffic pattern: leftright
Runway end identifier lights: nono
Obstructions: 60 ft. hill, 2000 ft. from runway, 33:1 slope to clear19 ft. road, 420 ft. from runway, 22:1 slope to clear

Runway 9/27

Dimensions: 2475 x 150 ft. / 754 x 46 m
Surface: dirt, in good condition
RUNWAY 9  RUNWAY 27
Latitude: 33-08.802667N33-08.699000N
Longitude: 116-08.058833W116-07.589333W
Traffic pattern: rightleft
Runway end identifier lights: nono
Obstructions: 50 ft. hill, 800 ft. from runway, 16:1 slope to clear77 ft. hill, 3000 ft. from runway, 38:1 slope to clear

Airport Ownership and Management from official FAA records

Ownership: Publicly-owned
Owner: COUNTY OF SAN DIEGO
1960 JOE CROSSON DRIVE
EL CAJON, CA 92020-1236
Phone 619-956-4800
Manager: MARC BASKEL
1960 JOE CROSSON DRIVE
EL CAJON, CA 92020-1236
Phone 619-956-4800
AMGRS OFFICE AT GILLESPIE FIELD.

Airport Operational Statistics

Aircraft operations: avg 34/week *
67% military
33% transient general aviation
* for 12-month period ending 31 May 2017

Additional Remarks

FLD UNUSABLE WHEN WET.
ALL RDO EQUIPPED ACFT MUST SELF-ANNOUNCE ON CTAF PRIOR TO LDG OR DEP.
PPR FOR ALL MIL ACFT; CTC AMGR.
ULTRALIGHT AREA NE QUAD OF AP.
OBSTN TO FAR PART 77, HILLS SURROUND ARPT.
RYS 09 & 27 AND RYS 13 & 31 THLDS MARKED BY WHITE PAVING BLOCKS.
CTN FOR OCNL UNAUTHORIZED OFF ROAD VEHICLES ON AND IN VCNTY OF RWYS AND TWYS.
ALL RY INTERSECTIONS MARKED BY WHITE PAVING BLOCKS.
BE ALERT FOR HIGH SPD MIL TILT ROTOR AND ULTRALIGHT OPS ON AND IN VCNTY OF ARPT.
ALL RWYS CLSD SS-SR, NOT LGTD.

Instrument Procedures

There are no published instrument procedures at L90.

Some nearby airports with instrument procedures:

L08 - Borrego Valley Airport (12 nm NW)
KTRM - Jacqueline Cochran Regional Airport (29 nm N)
KNJK - El Centro NAF Airport (30 nm SE)
KCLR - Cliff Hatfield Memorial Airport (31 nm E)
KBWC - Brawley Municipal Airport (32 nm E)
 
Loc | Ops | Rwys | IFR | FBO | Links
Com | Nav | Svcs | Stats | Notes

AirNav Hotels Sweepstakes
 
Area around L90 (Ocotillo Airport)
 
Road maps at: MapQuest Bing Google
 
Aerial photo
WARNING: Photo may not be current or correct
Aerial photo of L90 (Ocotillo Airport)
Photo taken 11-Nov-2009

Do you have a better or more recent aerial photo of Ocotillo Airport that you would like to share? If so, please send us your photo.

 
Sectional chart

 
Airport distance calculator
Flying to Ocotillo Airport? Find the distance to fly.

From to L90

Sunrise and sunset
Times for 22-May-2018
 Local
(UTC-7)
 Zulu
(UTC)
Morning civil twilight05:1412:14
Sunrise05:4112:41
Sunset19:4102:41
Evening civil twilight20:0903:09

Current date and time
Zulu (UTC)  23-May-2018 01:29:22
Local (UTC-7)  22-May-2018 18:29:22
 
METAR
KTRM 
29nm N 
230052Z AUTO 14006KT 10SM CLR 32/M02 A2968 RMK AO2 SLP051 T03221017
KNJK 
31nm SE 
230056Z 13006KT 10SM CLR 31/M04 A2970 RMK AO2 SLP072 T03111039 $
KIPL 
33nm SE 
230053Z AUTO 08007KT 10SM CLR 32/M01 A2968 RMK AO2 SLP051 T03171011
KCZZ 
35nm SW 
230052Z AUTO 23014KT 18/09 A2984 RMK AO1 SLP084 T01830089
KRNM 
40nm W 
230053Z 29010KT 10SM CLR 18/10 A2989 RMK AO2 SLP112 T01830100
KPSP 
44nm NW 
230053Z 31015G20KT 10SM CLR 29/09 A2974 RMK AO2 SLP067 T02940089
KSEE 
46nm SW 
230047Z 24010KT 10SM FEW037 19/10 A2989
TAF
KTRM 
29nm N 
221739Z 2218/2318 32007KT P6SM SKC FM221900 14010KT P6SM SKC FM230200 33010KT P6SM SKC
KNJK 
31nm SE 
2223/2323 VRB06KT 9999 FEW080 QNH2967INS TEMPO 2301/2307 26014KT BECMG 2315/2317 VRB06KT 9999 FEW250 QNH2972INS TEMPO 2317/2323 14007KT AUTOMATED SENSOR METWATCH 2306 TIL 2313 T18/2313Z T33/2322Z FS30103
KIPL 
33nm SE 
221729Z 2218/2318 31005KT P6SM SKC FM222000 27008KT P6SM SKC FM231100 18005KT P6SM SKC
NOTAMs
Click for the latest NOTAMs
NOTAMs are issued by the DoD/FAA and will open in a separate window not controlled by AirNav.

 

 
 

Where to Eat: Catering, Restaurants, Food shops

  
 Business Name 
 
 Contact 
 
 Services / Description 
 
Distance
 
Comments
  
Leapin Lizard RV Ranch 760-767-4526
[web site]
[email]
Internet access, Restrooms, Showers, Lodging, Camping on site

More info about Leapin Lizard RV Ranch
0.2 miles
free shuttle
 
   write
 

Would you like to see your business listed on this page?

 If your business provides an interesting product or service to pilots, flight crews, aircraft, or users of the Ocotillo Airport, you should consider listing it here.  To start the listing process, click on the button below
 
Add a business
 

Other Pages about Ocotillo Airport

www.co.san-diego.ca.us/...
 
Update a link
 
Copyright © AirNav, LLC. All rights reserved. Privacy Policy  Contact